Weather History for Warner Robins, GA

Change the Weather History Date:

Monday, October 29, 2012

  Actual Average Record
Temperature  
Mean Temperature 53 °F -  
Max Temperature 62 °F 71 °F 86 °F (1996)
Min Temperature 44 °F 48 °F 30 °F (2001)
Degree Days  
Heating Degree Days 12    
Growing Degree Days 3 (Base 50)    
Moisture  
Dew Point 32 °F    
Average Humidity 49    
Maximum Humidity 71    
Minimum Humidity 28    
Precipitation  
Precipitation 0.00 in - - ()
Sea Level Pressure  
Sea Level Pressure 29.81 in    
Wind  
Wind Speed 17 mph (NW)    
Max Wind Speed 26 mph    
Max Gust Speed 36 mph    
Visibility 10 miles    
Events      
Averages and records for this station are not official NWS values.
T = Trace of Precipitation, MM = Missing Value Source: NWS Daily Summary

Daily Weather History Graph

Daily Weather History Graph

Search for Another Location

Airport:

Trip Planner

Search our weather history database for the weather conditions in past years. The results will help you decide how hot, cold, wet, or windy it might be!

Date:

Astronomy

Oct. 29, 2012 Rise Set
Actual Time 7:49 AM EDT 6:45 PM EDT
Civil Twilight 7:24 AM EDT 7:11 PM EDT
Nautical Twilight 6:55 AM EDT 7:40 PM EDT
Astronomical Twilight 6:26 AM EDT 8:08 PM EDT
Moon 6:39 PM EDT (10/29) 7:37 AM EDT (10/29)
Length of Visible Light 11h 46m
Length of Day
10h 56m
Full, 100% of the Moon is Illuminated
Oct 29
Full
Oct 29
Full
Nov 6
Last Quarter
Nov 13
New
Nov 20
First Quarter

Hourly Weather History & Observations

Time (EDT) Temp. Windchill Dew Point Humidity Pressure Visibility Wind Dir Wind Speed Gust Speed Precip Events Conditions
12:55 AM 48.6 °F - 38.3 °F 68% 29.84 in 10.0 mi NNW 18.4 mph - N/A   Clear
1:55 AM 48.2 °F - 37.6 °F 67% 29.84 in 10.0 mi NW 13.8 mph - N/A   Clear
2:55 AM 47.8 °F - 37.2 °F 67% 29.84 in 10.0 mi NW 15.0 mph - N/A   Clear
3:55 AM 47.3 °F - 36.5 °F 66% 29.83 in 10.0 mi NW 17.3 mph 24.2 mph N/A   Clear
4:55 AM 46.4 °F 40.7 °F 36.5 °F 68% 29.82 in 10.0 mi NW 12.7 mph - N/A   Clear
5:55 AM 46.0 °F 39.6 °F 36.1 °F 68% 29.83 in 10.0 mi NW 15.0 mph - N/A   Clear
6:55 AM 45.7 °F 39.8 °F 35.8 °F 68% 29.84 in 10.0 mi NW 12.7 mph - N/A   Clear
7:55 AM 44.4 °F 39.5 °F 35.4 °F 71% 29.85 in 10.0 mi NW 9.2 mph - N/A   Clear
8:55 AM 46.8 °F - 35.6 °F 65% 29.87 in 10.0 mi NW 15.0 mph - N/A   Clear
9:55 AM 50.4 °F - 35.6 °F 57% 29.86 in 10.0 mi NW 16.1 mph 21.9 mph N/A   Clear
10:55 AM 54.3 °F - 34.0 °F 46% 29.85 in 10.0 mi NNW 16.1 mph 32.2 mph N/A   Clear
11:55 AM 57.2 °F - 33.1 °F 40% 29.85 in 10.0 mi NNW 23.0 mph 31.1 mph N/A   Clear
12:55 PM 59.2 °F - 32.4 °F 36% 29.82 in 10.0 mi NNW 19.6 mph 32.2 mph N/A   Clear
1:55 PM 60.6 °F - 30.7 °F 32% 29.78 in 10.0 mi NW 26.5 mph 34.5 mph N/A   Clear
2:55 PM 62.2 °F - 28.9 °F 28% 29.76 in 10.0 mi NW 25.3 mph 34.5 mph N/A   Clear
3:55 PM 61.9 °F - 28.6 °F 28% 29.75 in 10.0 mi NW 25.3 mph 34.5 mph N/A   Clear
4:55 PM 59.7 °F - 26.4 °F 28% 29.75 in 10.0 mi NW 24.2 mph 35.7 mph N/A   Clear
5:55 PM 57.2 °F - 26.4 °F 31% 29.76 in 10.0 mi NW 26.5 mph 35.7 mph N/A   Clear
6:55 PM 54.3 °F - 28.8 °F 38% 29.78 in 10.0 mi NW 23.0 mph 28.8 mph N/A   Clear
7:55 PM 52.9 °F - 29.1 °F 40% 29.78 in 10.0 mi NW 16.1 mph - N/A   Clear
8:55 PM 51.1 °F - 27.3 °F 40% 29.78 in 10.0 mi NW 17.3 mph - N/A   Clear
9:55 PM 50.4 °F - 25.9 °F 39% 29.79 in 10.0 mi NW 18.4 mph 24.2 mph N/A   Clear
10:55 PM 49.5 °F - 25.0 °F 38% 29.78 in 10.0 mi NW 18.4 mph 23.0 mph N/A   Clear
11:55 PM 48.2 °F - 24.6 °F 40% 29.78 in 10.0 mi WNW 15.0 mph - N/A   Clear